SASASAZM

Guest
Details From SASA - Salta
To SAZM - Mar Del Plata Brig Gen D Bartolome
Flight Number -
Tags Generated
Created
Modified
Stats Distance 883 nm / 1,635 km
Max Altitude 0 ft / 0 m
Waypoints 4
Social Downloads 2
Likes 0
Share VATSIM

Download

Looking for another format? Having issues loading an existing format? Contact us
Advertisement - Login to hide

Notes

Generated

Route

SASA ASADA R1339 SAZM

ID Type Via Altitude Latitude Longitude Leg Dist Tot Dist Heading (true) Name
O SASA APT - 0 ft / 0 m -24.85809˚ -65.48957˚ - 0 nm - -
ASADA FIX - 0 ft / 0 m -35.02583˚ -59.62583˚ 682 nm 682 nm 155° / 152° -
R1339 FIX - 0 ft / 0 m -37.92886˚ -57.58393˚ 200 nm 882 nm 151° / 150° -
O SAZM APT - 0 ft / 0 m -37.92886˚ -57.58393˚ 0 nm 882 nm 0° / 180° -

Altitude Profile

Advertisement - Login to hide

Weather


0- 5 10 15 20 25 30 35+ Temperature / ° C

Clouds and Precipitation
Forecast for 2017-12-15 06:00 UTC. Updated 2 hours ago

Ground ~20,000 ft ~40,000 ft Winds

SASA

Details ICAO SASA (SLA)
Name SALTA
Region Argentina
Timezone America/Argentina/Salta (UTC-3.0)
Stats Elevation 4,088 ft / 1,246 m (AMSL)
Location -24.855532° -65.483616°
Runways 2
Magnetic Variation 7.443° W

METAR

SASA 150300Z 36002KT 9999 FEW015 SCT100 20/19 Q1019

Decode

TAF

TAF SASA 142300Z 1500/1524 05010KT 7000 TS BKN020 FEW030CB TX33/1518Z TN20/1510Z BECMG 1514/1517 05010KT 9999 SCT020 FEW030CB

Decode

Departure Runways

ID Width Length Bearing (true) Bearing (mag) Surface Threshold Offset Overrun Length
02 148 ft / 45 m 9,844 ft / 3,001 m 11.23° 18.67° Asphalt 0 ft / 0 m 95 ft / 29 m
06 98 ft / 30 m 7,876 ft / 2,401 m 52.08° 59.52° Asphalt 0 ft / 0 m 0 ft / 0 m
20 148 ft / 45 m 9,844 ft / 3,001 m 191.23° 198.67° Asphalt 0 ft / 0 m 95 ft / 29 m
24 98 ft / 30 m 7,876 ft / 2,401 m 232.07° 239.51° Asphalt 0 ft / 0 m 0 ft / 0 m

SAZM

Details ICAO SAZM (MDQ)
Name Mar Del Plata Brig Gen D Bartolome
Region Argentina
Timezone America/Argentina/Buenos_Aires (UTC-3.0)
Stats Elevation 71 ft / 22 m (AMSL)
Location -37.934190° -57.573395°
Runways 1
Magnetic Variation 7.579° W

METAR

SAZM 150300Z 29003KT CAVOK 18/16 Q1009

Decode

TAF

TAF SAZM 142300Z 1500/1524 11010KT 9999 SCT040 TX30/1518Z TN15/1509Z BECMG 1502/1504 34010KT CAVOK BECMG 1512/1514 29015KT

Decode

Destination Runways

ID Width Length Bearing (true) Bearing (mag) Surface Threshold Offset Overrun Length
13 197 ft / 60 m 7,204 ft / 2,196 m 122.66° 130.24° Asphalt 0 ft / 0 m 196 ft / 60 m
31 197 ft / 60 m 7,204 ft / 2,196 m 302.65° 310.23° Asphalt 0 ft / 0 m 0 ft / 0 m

Approach Navaids

Runway Type Ident Frequency Range Bearing (true) Bearing (mag) Slope Elevation
13 Localiser MP 109.50 MHz 18 nm / 33 km 122.49° 130.07° - 71 ft / 22 m (AMSL)
13 Glidescope MP 109.50 MHz 10 nm / 19 km 122.66° 130.23° 3.00° 71 ft / 22 m (AMSL)
13 DME MP 109.50 MHz 18 nm / 33 km - - - 70 ft / 21 m (AMSL)

Popular Alternatives